| time (UTC) | temp F | wind direction | speed MPH | gust MPH | rain 1hr in | rain 24hr in | rain mn in | humidity % | barometer mb |
| 20260509031105 | 61 | 167 | 1.0 | 7.0 | 0.00 | 0.00 | 0.00 | 47 | 1012.1 |
| 20260509030605 | 61 | 172 | 1.0 | 6.0 | 0.00 | 0.00 | 0.00 | 47 | 1012.2 |
| 20260509030105 | 62 | 117 | 1.0 | 5.0 | 0.00 | 0.00 | 0.00 | 47 | 1012.2 |
| 20260509025104 | 62 | 150 | 1.0 | 3.0 | 0.00 | 0.00 | 0.00 | 47 | 1012.2 |
| 20260509024605 | 62 | 184 | 2.0 | 5.0 | 0.00 | 0.00 | 0.00 | 47 | 1012.2 |
| 20260509024105 | 62 | 162 | 0.0 | 2.0 | 0.00 | 0.00 | 0.00 | 48 | 1012.2 |
| 20260509023604 | 62 | 135 | 2.0 | 7.0 | 0.00 | 0.00 | 0.00 | 48 | 1012.2 |
| 20260509023104 | 61 | 126 | 2.0 | 3.0 | 0.00 | 0.00 | 0.00 | 49 | 1012.3 |
| 20260509022605 | 61 | 148 | 1.0 | 3.0 | 0.00 | 0.00 | 0.00 | 50 | 1012.3 |
| 20260509021605 | 61 | 117 | 0.0 | 2.0 | 0.00 | 0.00 | 0.00 | 51 | 1012.3 |
| 20260509021105 | 61 | 130 | 1.0 | 3.0 | 0.00 | 0.00 | 0.00 | 52 | 1012.2 |
| 20260509020605 | 62 | 160 | 0.0 | 5.0 | 0.00 | 0.00 | 0.00 | 52 | 1012.2 |
| 20260509020105 | 62 | 128 | 0.0 | 3.0 | 0.00 | 0.00 | 0.00 | 52 | 1012.2 |
| 20260509015604 | 62 | 94 | 0.0 | 3.0 | 0.00 | 0.00 | 0.00 | 52 | 1012.2 |
| 20260509015104 | 62 | 119 | 1.0 | 7.0 | 0.00 | 0.00 | 0.00 | 52 | 1012.1 |
| 20260509014604 | 62 | 107 | 1.0 | 3.0 | 0.00 | 0.00 | 0.00 | 52 | 1012.1 |
| 20260509014105 | 62 | 126 | 1.0 | 3.0 | 0.00 | 0.00 | 0.00 | 52 | 1012.0 |
| 20260509013605 | 62 | 195 | 1.0 | 2.0 | 0.00 | 0.00 | 0.00 | 52 | 1011.9 |
| 20260509013105 | 62 | 135 | 0.0 | 2.0 | 0.00 | 0.00 | 0.00 | 52 | 1011.9 |
| 20260509012605 | 62 | 157 | 1.0 | 2.0 | 0.00 | 0.00 | 0.00 | 51 | 1011.9 |
| 20260509012105 | 62 | 100 | 0.0 | 2.0 | 0.00 | 0.00 | 0.00 | 51 | 1011.8 |
| 20260509011605 | 62 | 122 | 1.0 | 3.0 | 0.00 | 0.00 | 0.00 | 51 | 1011.7 |
| 20260509011105 | 63 | 117 | 1.0 | 3.0 | 0.00 | 0.00 | 0.00 | 50 | 1011.6 |
| 20260509010605 | 63 | 131 | 1.0 | 2.0 | 0.00 | 0.00 | 0.00 | 50 | 1011.5 |
| 20260509010105 | 63 | 136 | 1.0 | 3.0 | 0.00 | 0.00 | 0.00 | 49 | 1011.4 |
| 20260509005605 | 63 | 112 | 2.0 | 5.0 | 0.00 | 0.00 | 0.00 | 48 | 1011.4 |
| 20260509005105 | 63 | 163 | 1.0 | 3.0 | 0.00 | 0.00 | 0.00 | 47 | 1011.2 |
| 20260509004605 | 64 | 169 | 2.0 | 6.0 | 0.00 | 0.00 | 0.00 | 46 | 1011.1 |
| 20260509003605 | 64 | 120 | 1.0 | 6.0 | 0.00 | 0.00 | 0.00 | 44 | 1011.0 |
| 20260509003105 | 64 | 135 | 1.0 | 3.0 | 0.00 | 0.00 | 0.00 | 41 | 1010.9 |
| 20260509002105 | 65 | 169 | 0.0 | 1.0 | 0.00 | 0.00 | 0.00 | 41 | 1010.7 |
| 20260509001606 | 65 | 188 | 0.0 | 1.0 | 0.00 | 0.00 | 0.00 | 40 | 1010.7 |
| 20260509000604 | 65 | 123 | 1.0 | 3.0 | 0.00 | 0.00 | 0.00 | 39 | 1010.6 |
| 20260509000105 | 65 | 172 | 0.0 | 2.0 | 0.00 | 0.00 | 0.00 | 39 | 1010.6 |
| 20260508235605 | 65 | 164 | 1.0 | 3.0 | 0.00 | 0.00 | 0.00 | 39 | 1010.6 |
| 20260508235105 | 65 | 219 | 0.0 | 1.0 | 0.00 | 0.00 | 0.00 | 38 | 1010.6 |
| 20260508234105 | 65 | 218 | 1.0 | 3.0 | 0.00 | 0.00 | 0.00 | 37 | 1010.5 |
| 20260508233605 | 66 | 54 | 0.0 | 2.0 | 0.00 | 0.00 | 0.00 | 37 | 1010.4 |
| 20260508233105 | 66 | 156 | 1.0 | 3.0 | 0.00 | 0.00 | 0.00 | 37 | 1010.3 |
| 20260508232605 | 66 | 158 | 0.0 | 2.0 | 0.00 | 0.00 | 0.00 | 37 | 1010.3 |
| 20260508232104 | 66 | 163 | 0.0 | 3.0 | 0.00 | 0.00 | 0.00 | 36 | 1010.4 |
| 20260508231605 | 66 | 166 | 1.0 | 2.0 | 0.00 | 0.00 | 0.00 | 36 | 1010.3 |
| 20260508231105 | 66 | 214 | 1.0 | 3.0 | 0.00 | 0.00 | 0.00 | 37 | 1010.3 |
| 20260508230604 | 66 | 149 | 0.0 | 2.0 | 0.00 | 0.00 | 0.00 | 35 | 1010.2 |
| 20260508230105 | 66 | 192 | 1.0 | 3.0 | 0.00 | 0.00 | 0.00 | 35 | 1010.1 |
| 20260508225606 | 67 | 153 | 1.0 | 3.0 | 0.00 | 0.00 | 0.00 | 35 | 1010.2 |
| 20260508225104 | 67 | 159 | 0.0 | 3.0 | 0.00 | 0.00 | 0.00 | 35 | 1010.1 |
| 20260508224604 | 67 | 146 | 1.0 | 5.0 | 0.00 | 0.00 | 0.00 | 35 | 1010.1 |
| 20260508224104 | 67 | 313 | 1.0 | 3.0 | 0.00 | 0.00 | 0.00 | 34 | 1010.1 |
| 20260508223605 | 67 | 179 | 1.0 | 3.0 | 0.00 | 0.00 | 0.00 | 34 | 1010.1 |
| 20260508223105 | 67 | 179 | 1.0 | 2.0 | 0.00 | 0.00 | 0.00 | 34 | 1010.0 |
| 20260508222604 | 67 | 59 | 1.0 | 5.0 | 0.00 | 0.00 | 0.00 | 34 | 1010.0 |
| 20260508222104 | 67 | 91 | 2.0 | 6.0 | 0.00 | 0.00 | 0.00 | 34 | 1010.0 |
| 20260508221606 | 67 | 140 | 2.0 | 5.0 | 0.00 | 0.00 | 0.00 | 33 | 1010.0 |
| 20260508221105 | 67 | 203 | 1.0 | 3.0 | 0.00 | 0.00 | 0.00 | 34 | 1010.1 |
| 20260508220605 | 67 | 283 | 2.0 | 6.0 | 0.00 | 0.00 | 0.00 | 33 | 1010.0 |
| 20260508215605 | 68 | 341 | 2.0 | 8.0 | 0.00 | 0.00 | 0.00 | 33 | 1010.1 |
| 20260508215105 | 69 | 159 | 2.0 | 13.0 | 0.00 | 0.00 | 0.00 | 31 | 1010.1 |
| 20260508214605 | 70 | 158 | 3.0 | 12.0 | 0.00 | 0.00 | 0.00 | 32 | 1010.1 |
| 20260508214105 | 69 | 213 | 2.0 | 8.0 | 0.00 | 0.00 | 0.00 | 33 | 1010.1 |
| 20260508213605 | 69 | 69 | 1.0 | 5.0 | 0.00 | 0.00 | 0.00 | 33 | 1010.0 |
| 20260508213104 | 68 | 199 | 1.0 | 6.0 | 0.00 | 0.00 | 0.00 | 35 | 1010.1 |
| 20260508212605 | 68 | 184 | 2.0 | 5.0 | 0.00 | 0.00 | 0.00 | 34 | 1010.2 |
| 20260508211604 | 68 | 92 | 2.0 | 10.0 | 0.00 | 0.00 | 0.00 | 34 | 1010.3 |
| 20260508211104 | 68 | 161 | 2.0 | 10.0 | 0.00 | 0.00 | 0.00 | 34 | 1010.3 |
| 20260508210605 | 67 | 247 | 3.0 | 9.0 | 0.00 | 0.00 | 0.00 | 35 | 1010.4 |
| 20260508210105 | 67 | 197 | 2.0 | 12.0 | 0.00 | 0.00 | 0.00 | 34 | 1010.3 |
| 20260508205605 | 67 | 284 | 2.0 | 7.0 | 0.00 | 0.00 | 0.00 | 34 | 1010.4 |
| 20260508205105 | 67 | 305 | 2.0 | 5.0 | 0.00 | 0.00 | 0.00 | 34 | 1010.3 |
| 20260508204604 | 67 | 140 | 2.0 | 6.0 | 0.00 | 0.00 | 0.00 | 34 | 1010.3 |
| 20260508204104 | 67 | 141 | 2.0 | 8.0 | 0.00 | 0.00 | 0.00 | 33 | 1010.3 |
| 20260508203605 | 68 | 57 | 3.0 | 10.0 | 0.00 | 0.00 | 0.00 | 32 | 1010.5 |
| 20260508202104 | 69 | 181 | 4.0 | 12.0 | 0.00 | 0.00 | 0.00 | 32 | 1010.4 |
| 20260508201604 | 68 | 223 | 2.0 | 7.0 | 0.00 | 0.00 | 0.00 | 35 | 1010.5 |
| 20260508201105 | 67 | 337 | 3.0 | 12.0 | 0.00 | 0.00 | 0.00 | 33 | 1010.6 |
| 20260508200605 | 68 | 184 | 3.0 | 7.0 | 0.00 | 0.00 | 0.00 | 33 | 1010.7 |
| 20260508200105 | 68 | 223 | 5.0 | 13.0 | 0.00 | 0.00 | 0.00 | 32 | 1010.7 |
| 20260508195105 | 67 | 81 | 3.0 | 9.0 | 0.00 | 0.00 | 0.00 | 33 | 1010.7 |
| 20260508194605 | 67 | 199 | 2.0 | 10.0 | 0.00 | 0.00 | 0.00 | 33 | 1010.6 |
| 20260508194104 | 67 | 336 | 4.0 | 7.0 | 0.00 | 0.00 | 0.00 | 33 | 1010.7 |
| 20260508193605 | 67 | 48 | 2.0 | 5.0 | 0.00 | 0.00 | 0.00 | 35 | 1010.6 |
| 20260508193105 | 67 | 157 | 1.0 | 3.0 | 0.00 | 0.00 | 0.00 | 36 | 1010.6 |
| 20260508192604 | 67 | 145 | 2.0 | 5.0 | 0.00 | 0.00 | 0.00 | 35 | 1010.7 |
| 20260508192104 | 68 | 100 | 2.0 | 6.0 | 0.00 | 0.00 | 0.00 | 34 | 1010.7 |
| 20260508191105 | 68 | 73 | 2.0 | 5.0 | 0.00 | 0.00 | 0.00 | 36 | 1010.7 |
| 20260508190605 | 68 | 185 | 4.0 | 8.0 | 0.00 | 0.00 | 0.00 | 34 | 1010.8 |
| 20260508190104 | 68 | 184 | 3.0 | 9.0 | 0.00 | 0.00 | 0.00 | 35 | 1010.8 |
| 20260508185605 | 69 | 160 | 3.0 | 7.0 | 0.00 | 0.00 | 0.00 | 34 | 1010.9 |
| 20260508185104 | 69 | 185 | 2.0 | 8.0 | 0.00 | 0.00 | 0.00 | 34 | 1011.0 |
| 20260508184104 | 68 | 60 | 1.0 | 5.0 | 0.00 | 0.00 | 0.00 | 38 | 1011.1 |
| 20260508183605 | 66 | 164 | 1.0 | 8.0 | 0.00 | 0.00 | 0.00 | 35 | 1011.3 |
| 20260508183104 | 66 | 126 | 2.0 | 8.0 | 0.00 | 0.00 | 0.00 | 36 | 1011.4 |
| 20260508182105 | 66 | 182 | 3.0 | 9.0 | 0.00 | 0.00 | 0.00 | 35 | 1011.5 |
| 20260508181605 | 66 | 186 | 5.0 | 10.0 | 0.00 | 0.00 | 0.00 | 35 | 1011.6 |
| 20260508180604 | 65 | 6 | 2.0 | 3.0 | 0.00 | 0.00 | 0.00 | 35 | 1011.7 |
| 20260508180105 | 66 | 356 | 1.0 | 7.0 | 0.00 | 0.00 | 0.00 | 35 | 1011.7 |
| 20260508175605 | 66 | 275 | 2.0 | 8.0 | 0.00 | 0.00 | 0.00 | 35 | 1011.8 |
| 20260508175105 | 66 | 184 | 3.0 | 12.0 | 0.00 | 0.00 | 0.00 | 35 | 1011.8 |
| 20260508173605 | 67 | 182 | 3.0 | 9.0 | 0.00 | 0.00 | 0.00 | 34 | 1011.9 |
| 20260508173105 | 67 | 320 | 3.0 | 9.0 | 0.00 | 0.00 | 0.00 | 34 | 1011.7 |
| 20260508172105 | 67 | 105 | 3.0 | 8.0 | 0.00 | 0.00 | 0.00 | 34 | 1011.8 |
| 20260508171605 | 67 | 202 | 2.0 | 10.0 | 0.00 | 0.00 | 0.00 | 34 | 1011.9 |
| 20260508171104 | 67 | 307 | 2.0 | 7.0 | 0.00 | 0.00 | 0.00 | 34 | 1011.9 |
| 20260508170605 | 67 | 105 | 2.0 | 9.0 | 0.00 | 0.00 | 0.00 | 34 | 1011.8 |
| 20260508165605 | 66 | 135 | 2.0 | 8.0 | 0.00 | 0.00 | 0.00 | 35 | 1012.0 |
| 20260508165105 | 66 | 181 | 4.0 | 14.0 | 0.00 | 0.00 | 0.00 | 35 | 1012.2 |
| 20260508164605 | 66 | 163 | 3.0 | 10.0 | 0.00 | 0.00 | 0.00 | 34 | 1012.3 |
| 20260508164104 | 65 | 206 | 5.0 | 12.0 | 0.00 | 0.00 | 0.00 | 34 | 1012.4 |
| 20260508163104 | 66 | 175 | 5.0 | 12.0 | 0.00 | 0.00 | 0.00 | 34 | 1012.4 |
| 20260508162605 | 66 | 132 | 4.0 | 8.0 | 0.00 | 0.00 | 0.00 | 36 | 1012.4 |
| 20260508161605 | 65 | 231 | 3.0 | 8.0 | 0.00 | 0.00 | 0.00 | 37 | 1012.7 |
| 20260508161105 | 65 | 357 | 2.0 | 8.0 | 0.00 | 0.00 | 0.00 | 37 | 1012.7 |
| 20260508160605 | 64 | 239 | 1.0 | 3.0 | 0.00 | 0.00 | 0.00 | 38 | 1012.8 |
| 20260508160105 | 64 | 348 | 3.0 | 13.0 | 0.00 | 0.00 | 0.00 | 36 | 1012.9 |
| 20260508155605 | 65 | 295 | 3.0 | 9.0 | 0.00 | 0.00 | 0.00 | 37 | 1012.9 |
| 20260508155105 | 64 | 239 | 2.0 | 6.0 | 0.00 | 0.00 | 0.00 | 37 | 1013.0 |
| 20260508154605 | 64 | 353 | 2.0 | 6.0 | 0.00 | 0.00 | 0.00 | 35 | 1013.1 |
| 20260508154105 | 65 | 182 | 4.0 | 13.0 | 0.00 | 0.00 | 0.00 | 36 | 1013.0 |
| 20260508153605 | 65 | 227 | 3.0 | 13.0 | 0.00 | 0.00 | 0.00 | 35 | 1013.1 |
| 20260508153104 | 65 | 270 | 1.0 | 5.0 | 0.00 | 0.00 | 0.00 | 40 | 1013.1 |
| 20260508152105 | 64 | 156 | 3.0 | 7.0 | 0.00 | 0.00 | 0.00 | 36 | 1013.1 |
| 20260508151105 | 63 | 201 | 3.0 | 6.0 | 0.00 | 0.00 | 0.00 | 37 | 1013.2 |
| 20260508150606 | 63 | 154 | 2.0 | 5.0 | 0.00 | 0.00 | 0.00 | 38 | 1013.2 |
| 20260508150105 | 63 | 180 | 2.0 | 8.0 | 0.00 | 0.00 | 0.00 | 38 | 1013.2 |
| 20260508145604 | 63 | 178 | 3.0 | 9.0 | 0.00 | 0.00 | 0.00 | 35 | 1013.3 |
| 20260508144105 | 62 | 92 | 2.0 | 6.0 | 0.00 | 0.00 | 0.00 | 34 | 1013.4 |
| 20260508143605 | 62 | 336 | 2.0 | 7.0 | 0.00 | 0.00 | 0.00 | 36 | 1013.4 |
| 20260508143106 | 62 | 206 | 1.0 | 5.0 | 0.00 | 0.00 | 0.00 | 39 | 1013.5 |
| 20260508142105 | 61 | 350 | 2.0 | 5.0 | 0.00 | 0.00 | 0.00 | 38 | 1013.5 |
| 20260508141605 | 61 | 165 | 2.0 | 8.0 | 0.00 | 0.00 | 0.00 | 37 | 1013.6 |
| 20260508141105 | 61 | 157 | 3.0 | 8.0 | 0.00 | 0.00 | 0.00 | 39 | 1013.6 |
| 20260508140605 | 61 | 146 | 3.0 | 7.0 | 0.00 | 0.00 | 0.00 | 40 | 1013.6 |
| 20260508135104 | 61 | 178 | 1.0 | 3.0 | 0.00 | 0.00 | 0.00 | 42 | 1013.6 |
| 20260508134105 | 60 | 127 | 1.0 | 3.0 | 0.00 | 0.00 | 0.00 | 44 | 1013.5 |
| 20260508133605 | 60 | 223 | 1.0 | 3.0 | 0.00 | 0.00 | 0.00 | 45 | 1013.7 |
| 20260508133105 | 59 | 171 | 1.0 | 3.0 | 0.00 | 0.00 | 0.00 | 44 | 1013.7 |
| 20260508132605 | 58 | 124 | 1.0 | 3.0 | 0.00 | 0.00 | 0.00 | 43 | 1013.8 |
| 20260508132105 | 58 | 323 | 2.0 | 3.0 | 0.00 | 0.00 | 0.00 | 45 | 1013.8 |
| 20260508131605 | 58 | 152 | 1.0 | 3.0 | 0.00 | 0.00 | 0.00 | 44 | 1013.8 |
| 20260508131105 | 58 | 208 | 1.0 | 3.0 | 0.00 | 0.00 | 0.00 | 46 | 1013.7 |
| 20260508130604 | 57 | 342 | 1.0 | 3.0 | 0.00 | 0.00 | 0.00 | 46 | 1013.7 |
| 20260508125605 | 56 | 159 | 1.0 | 3.0 | 0.00 | 0.00 | 0.00 | 50 | 1013.8 |
| 20260508124105 | 54 | 329 | 2.0 | 3.0 | 0.00 | 0.00 | 0.00 | 53 | 1013.8 |
| 20260508123604 | 53 | 315 | 0.0 | 2.0 | 0.00 | 0.00 | 0.00 | 55 | 1013.8 |
| 20260508123105 | 53 | 321 | 1.0 | 3.0 | 0.00 | 0.00 | 0.00 | 57 | 1013.8 |
| 20260508122605 | 53 | 328 | 1.0 | 2.0 | 0.00 | 0.00 | 0.00 | 59 | 1013.8 |
| 20260508122104 | 52 | 115 | 0.0 | 1.0 | 0.00 | 0.00 | 0.00 | 62 | 1013.6 |
| 20260508121105 | 52 | 198 | 0.0 | 2.0 | 0.00 | 0.00 | 0.00 | 64 | 1013.5 |
| 20260508120604 | 51 | 308 | 0.0 | 1.0 | 0.00 | 0.00 | 0.00 | 65 | 1013.5 |
| 20260508120105 | 51 | 286 | 0.0 | 1.0 | 0.00 | 0.00 | 0.00 | 66 | 1013.5 |
| 20260508115605 | 51 | 304 | 0.0 | 1.0 | 0.00 | 0.00 | 0.00 | 67 | 1013.6 |
| 20260508115106 | 50 | 331 | 0.0 | 2.0 | 0.00 | 0.00 | 0.00 | 66 | 1013.6 |
| 20260508114605 | 50 | 234 | 0.0 | 1.0 | 0.00 | 0.00 | 0.00 | 68 | 1013.5 |
| 20260508114105 | 49 | 233 | 0.0 | 1.0 | 0.00 | 0.00 | 0.00 | 69 | 1013.5 |
| 20260508113105 | 48 | 316 | 0.0 | 2.0 | 0.00 | 0.00 | 0.00 | 70 | 1013.6 |
| 20260508112605 | 47 | 311 | 0.0 | 2.0 | 0.00 | 0.00 | 0.00 | 72 | 1013.6 |
| 20260508112105 | 47 | 287 | 0.0 | 1.0 | 0.00 | 0.00 | 0.00 | 73 | 1013.5 |
| 20260508111605 | 46 | 286 | 0.0 | 0.0 | 0.00 | 0.00 | 0.00 | 74 | 1013.4 |
| 20260508111105 | 45 | 286 | 0.0 | 1.0 | 0.00 | 0.00 | 0.00 | 76 | 1013.3 |
| 20260508110604 | 44 | 285 | 0.0 | 0.0 | 0.00 | 0.00 | 0.00 | 76 | 1013.2 |
| 20260508110104 | 44 | 285 | 0.0 | 0.0 | 0.00 | 0.00 | 0.00 | 75 | 1013.1 |
| 20260508105604 | 44 | 285 | 0.0 | 0.0 | 0.00 | 0.00 | 0.00 | 75 | 1012.9 |
| 20260508105105 | 44 | 285 | 0.0 | 0.0 | 0.00 | 0.00 | 0.00 | 76 | 1013.0 |
| 20260508104605 | 43 | 285 | 0.0 | 0.0 | 0.00 | 0.00 | 0.00 | 75 | 1013.1 |
| 20260508104105 | 43 | 285 | 0.0 | 0.0 | 0.00 | 0.00 | 0.00 | 75 | 1013.0 |
| 20260508103605 | 43 | 285 | 0.0 | 0.0 | 0.00 | 0.00 | 0.00 | 75 | 1012.9 |
| 20260508103105 | 43 | 285 | 0.0 | 0.0 | 0.00 | 0.00 | 0.00 | 74 | 1013.0 |
| 20260508102105 | 43 | 285 | 0.0 | 0.0 | 0.00 | 0.00 | 0.00 | 72 | 1012.9 |
| 20260508100605 | 44 | 285 | 0.0 | 0.0 | 0.00 | 0.00 | 0.00 | 72 | 1012.6 |
| 20260508100105 | 44 | 285 | 0.0 | 0.0 | 0.00 | 0.00 | 0.00 | 71 | 1012.5 |
| 20260508095605 | 44 | 285 | 0.0 | 0.0 | 0.00 | 0.00 | 0.00 | 69 | 1012.6 |
| 20260508095105 | 45 | 285 | 0.0 | 0.0 | 0.00 | 0.00 | 0.00 | 68 | 1012.5 |
| 20260508094604 | 45 | 285 | 0.0 | 0.0 | 0.00 | 0.00 | 0.00 | 67 | 1012.5 |
| 20260508093605 | 47 | 285 | 0.0 | 0.0 | 0.00 | 0.00 | 0.00 | 66 | 1012.3 |
| 20260508092104 | 48 | 286 | 0.0 | 1.0 | 0.00 | 0.00 | 0.00 | 66 | 1012.3 |
| 20260508091604 | 48 | 45 | 0.0 | 1.0 | 0.00 | 0.00 | 0.00 | 66 | 1012.3 |
| 20260508091104 | 48 | 298 | 0.0 | 2.0 | 0.00 | 0.00 | 0.00 | 65 | 1012.2 |
| 20260508090605 | 49 | 344 | 0.0 | 1.0 | 0.00 | 0.00 | 0.00 | 65 | 1012.2 |
| 20260508090105 | 49 | 321 | 0.0 | 1.0 | 0.00 | 0.00 | 0.00 | 65 | 1012.1 |
| 20260508085605 | 49 | 206 | 0.0 | 1.0 | 0.00 | 0.00 | 0.00 | 64 | 1012.1 |
| 20260508085105 | 49 | 285 | 0.0 | 2.0 | 0.00 | 0.00 | 0.00 | 64 | 1012.1 |
| 20260508084604 | 50 | 334 | 1.0 | 3.0 | 0.00 | 0.00 | 0.00 | 64 | 1012.0 |
| 20260508084104 | 50 | 122 | 0.0 | 3.0 | 0.00 | 0.00 | 0.00 | 63 | 1011.9 |
| 20260508083604 | 50 | 149 | 0.0 | 1.0 | 0.00 | 0.00 | 0.00 | 63 | 1011.9 |
| 20260508083105 | 50 | 11 | 1.0 | 3.0 | 0.00 | 0.00 | 0.00 | 62 | 1011.8 |
| 20260508082604 | 51 | 306 | 1.0 | 3.0 | 0.00 | 0.00 | 0.00 | 62 | 1011.6 |
| 20260508082104 | 51 | 11 | 1.0 | 8.0 | 0.00 | 0.00 | 0.00 | 62 | 1011.5 |
| 20260508081605 | 51 | 301 | 0.0 | 1.0 | 0.00 | 0.00 | 0.00 | 61 | 1011.4 |
| 20260508081105 | 51 | 310 | 0.0 | 1.0 | 0.00 | 0.00 | 0.00 | 60 | 1011.3 |
| 20260508080605 | 52 | 64 | 1.0 | 3.0 | 0.00 | 0.00 | 0.00 | 60 | 1011.2 |
| 20260508080105 | 52 | 48 | 1.0 | 3.0 | 0.00 | 0.00 | 0.00 | 60 | 1011.0 |
| 20260508075605 | 52 | 194 | 0.0 | 2.0 | 0.00 | 0.00 | 0.00 | 59 | 1010.9 |
| 20260508075104 | 53 | 320 | 1.0 | 3.0 | 0.00 | 0.00 | 0.00 | 58 | 1010.8 |
| 20260508074105 | 53 | 291 | 1.0 | 9.0 | 0.00 | 0.00 | 0.00 | 58 | 1010.7 |
| 20260508073604 | 53 | 292 | 2.0 | 8.0 | 0.00 | 0.00 | 0.00 | 58 | 1010.6 |
| 20260508073105 | 53 | 311 | 2.0 | 7.0 | 0.00 | 0.00 | 0.00 | 59 | 1010.5 |
| 20260508072604 | 53 | 120 | 0.0 | 3.0 | 0.00 | 0.00 | 0.00 | 59 | 1010.2 |
| 20260508070605 | 53 | 10 | 1.0 | 3.0 | 0.00 | 0.00 | 0.00 | 64 | 1009.9 |
| 20260508070105 | 52 | 315 | 2.0 | 6.0 | 0.00 | 0.00 | 0.00 | 68 | 1009.9 |
| 20260508065605 | 52 | 316 | 1.0 | 3.0 | 0.00 | 0.00 | 0.00 | 70 | 1009.7 |
| 20260508065104 | 52 | 269 | 0.0 | 3.0 | 0.00 | 0.00 | 0.00 | 71 | 1009.7 |
| 20260508064604 | 52 | 285 | 0.0 | 2.0 | 0.00 | 0.00 | 0.00 | 71 | 1009.6 |
| 20260508064104 | 52 | 267 | 0.0 | 1.0 | 0.00 | 0.00 | 0.00 | 71 | 1009.4 |
| 20260508063104 | 53 | 162 | 0.0 | 1.0 | 0.00 | 0.00 | 0.00 | 70 | 1009.3 |
| 20260508062604 | 53 | 197 | 0.0 | 1.0 | 0.00 | 0.01 | 0.00 | 70 | 1009.2 |
| 20260508062104 | 53 | 184 | 0.0 | 2.0 | 0.00 | 0.02 | 0.00 | 70 | 1009.3 |
| 20260508061104 | 53 | 141 | 0.0 | 1.0 | 0.00 | 0.03 | 0.00 | 69 | 1009.2 |
| 20260508060605 | 54 | 144 | 0.0 | 3.0 | 0.00 | 0.04 | 0.00 | 69 | 1009.2 |
| 20260508060104 | 53 | 163 | 2.0 | 5.0 | 0.00 | 0.04 | 0.00 | 69 | 1009.1 |
| 20260508055604 | 53 | 164 | 0.0 | 3.0 | 0.00 | 0.05 | 0.00 | 69 | 1009.1 |
| 20260508055104 | 53 | 186 | 0.0 | 3.0 | 0.00 | 0.12 | 0.00 | 70 | 1009.1 |
| 20260508054605 | 53 | 168 | 1.0 | 5.0 | 0.00 | 0.13 | 0.00 | 70 | 1009.1 |
| 20260508054104 | 53 | 257 | 1.0 | 2.0 | 0.00 | 0.13 | 0.00 | 70 | 1009.0 |
| 20260508053604 | 53 | 160 | 0.0 | 1.0 | 0.00 | 0.13 | 0.00 | 70 | 1009.1 |
| 20260508053104 | 53 | 164 | 0.0 | 1.0 | 0.00 | 0.13 | 0.00 | 70 | 1009.1 |
| 20260508052605 | 53 | 167 | 0.0 | 1.0 | 0.00 | 0.13 | 0.00 | 70 | 1009.1 |
| 20260508052105 | 53 | 137 | 0.0 | 3.0 | 0.00 | 0.13 | 0.00 | 70 | 1008.9 |
| 20260508051105 | 53 | 152 | 0.0 | 2.0 | 0.00 | 0.13 | 0.00 | 69 | 1009.0 |
| 20260508050604 | 53 | 184 | 0.0 | 2.0 | 0.00 | 0.13 | 0.00 | 69 | 1009.0 |
| 20260508045605 | 53 | 184 | 0.0 | 3.0 | 0.00 | 0.13 | 0.00 | 69 | 1009.0 |
| 20260508045105 | 53 | 253 | 1.0 | 3.0 | 0.00 | 0.13 | 0.00 | 69 | 1009.0 |
| 20260508044104 | 53 | 179 | 2.0 | 5.0 | 0.00 | 0.13 | 0.00 | 69 | 1009.0 |
| 20260508043605 | 53 | 145 | 1.0 | 3.0 | 0.00 | 0.13 | 0.00 | 69 | 1008.9 |
| 20260508043105 | 53 | 166 | 1.0 | 3.0 | 0.00 | 0.13 | 0.00 | 69 | 1008.9 |
| 20260508042604 | 53 | 179 | 1.0 | 2.0 | 0.00 | 0.13 | 0.00 | 69 | 1008.9 |
| 20260508042105 | 53 | 186 | 1.0 | 3.0 | 0.00 | 0.13 | 0.00 | 69 | 1008.9 |
| 20260508041605 | 53 | 157 | 0.0 | 1.0 | 0.00 | 0.13 | 0.00 | 69 | 1008.8 |
| 20260508040605 | 53 | 179 | 2.0 | 6.0 | 0.00 | 0.13 | 0.00 | 69 | 1008.9 |
| 20260508035604 | 53 | 76 | 0.0 | 3.0 | 0.00 | 0.13 | 0.13 | 69 | 1008.8 |
| 20260508035105 | 53 | 130 | 0.0 | 2.0 | 0.00 | 0.13 | 0.13 | 69 | 1008.8 |
| 20260508034605 | 53 | 184 | 0.0 | 2.0 | 0.00 | 0.13 | 0.13 | 69 | 1008.8 |
| 20260508033605 | 53 | 194 | 1.0 | 5.0 | 0.00 | 0.13 | 0.13 | 69 | 1008.7 |
| 20260508033105 | 53 | 183 | 1.0 | 3.0 | 0.00 | 0.13 | 0.13 | 69 | 1008.7 |
| 20260508032105 | 54 | 179 | 1.0 | 3.0 | 0.00 | 0.13 | 0.13 | 69 | 1008.8 |
| 20260508031605 | 54 | 119 | 0.0 | 3.0 | 0.00 | 0.13 | 0.13 | 70 | 1008.7 |